Home > Weather > Ålesund > Past weeks

Flag for Norway Weather for the Past 2 Weeks in Ålesund, Norway

Now
39 °F

Drizzle. Broken clouds.


Feels Like: 32 °F
Forecast: 43 / 51 °F
Wind: 13 mph from South

Location: Alesund / Vigra

Current Time: Apr 29, 2016 at 1:16:42 PM

Latest Report: Apr 29, 2016 at 12:20 PM


Visibility: N/A

Pressure: 29.50 "Hg

Humidity: 87%

Dew Point: 36 °F

Location of ÅlesundLocation

Historic Weather in Ålesund — Graph

°F

Ålesund Temperature Yesterday

Maximum temperature yesterday: 52 °F (at 1:20 PM)
Minimum temperature yesterday: 30 °F (at 1:20 AM)
Average temperature yesterday: 44 °F

High & Low Weather Summary for the Past Weeks

 TemperatureHumidityPressure
High52 °F (Apr 28, 1:20 PM)100% (Apr 15, 4:50 AM)30.30 "Hg (Apr 15, 4:50 AM)
Low25 °F (Apr 24, 3:20 AM)32% (Apr 28, 12:50 PM)29.27 "Hg (Apr 18, 10:50 AM)
Average40 °F76%29.77 "Hg
* Reported Apr 14 11:50 AM — Apr 29 11:50 AM, Ålesund, Weather by CustomWeather, © 2016

Note: Actual official high and low records may vary slightly from our data, if they occured in-between our weather recording intervals... More about our weather records

Advertising

Ålesund Weather History for the Previous 24 Hours

Scroll right to see more
 ConditionsComfort  
Time TempWeatherWind HumidityBarometerVisibility
11:50 AM
Fri, Apr 29
39 °FLight rain. Partly sunny.12 mph93%29.50 "HgN/A
11:20 AM39 °FLight rain. Partly sunny.9 mph93%29.50 "HgN/A
10:50 AM41 °FLight rain. Broken clouds.10 mph87%29.50 "HgN/A
10:20 AM41 °FLight rain. Broken clouds.7 mph87%29.50 "HgN/A
9:50 AM41 °FLight rain. Broken clouds.7 mph87%29.53 "HgN/A
9:20 AM41 °FLight rain. Partly sunny.6 mph93%29.53 "HgN/A
8:50 AM41 °FLight rain. Broken clouds.1 mph93%29.56 "HgN/A
8:20 AM43 °FLight rain. Broken clouds.5 mph87%29.59 "HgN/A
7:50 AM41 °FLight rain. Broken clouds.7 mph93%29.62 "HgN/A
7:20 AM41 °FLight rain. Partly sunny.7 mph93%29.62 "HgN/A
6:50 AM43 °FDrizzle. Broken clouds.8 mph81%29.65 "HgN/A
6:20 AM43 °FPartly cloudy.9 mph81%29.68 "HgN/A
5:50 AM43 °FPassing clouds.9 mph71%29.68 "HgN/A
5:20 AM43 °FMostly cloudy.10 mph71%29.68 "HgN/A
4:20 AM43 °FOvercast.14 mph71%29.74 "HgN/A
3:50 AM43 °FMostly cloudy.10 mph71%29.74 "HgN/A
2:50 AM43 °FOvercast.13 mph76%29.77 "HgN/A
2:20 AM43 °FPassing clouds.12 mph71%29.80 "HgN/A
1:50 AM43 °FPassing clouds.13 mph71%29.80 "HgN/A
1:20 AM43 °FPassing clouds.12 mph66%29.83 "HgN/A
12:50 AM41 °FPassing clouds.10 mph70%29.83 "HgN/A
12:20 AM43 °FOvercast.6 mph71%29.86 "HgN/A
11:50 PM
Thu, Apr 28
45 °FPassing clouds.8 mph71%29.86 "HgN/A
10:50 PM45 °FClear.9 mph76%29.89 "Hg10 mi
10:20 PM45 °FSunny.9 mph71%29.89 "Hg10 mi
9:50 PM43 °FSunny.10 mph81%29.89 "Hg10 mi
9:20 PM45 °FSunny.10 mph76%29.92 "Hg10 mi
8:50 PM45 °FSunny.15 mph76%29.92 "Hg10 mi
8:20 PM46 °FSunny.14 mph71%29.92 "Hg10 mi
7:50 PM46 °FSunny.13 mph66%29.92 "Hg10 mi
7:20 PM48 °FSunny.13 mph62%29.92 "Hg10 mi
6:50 PM48 °FSunny.14 mph62%29.92 "Hg10 mi
6:20 PM48 °FSunny.14 mph62%29.92 "Hg10 mi
5:50 PM50 °FSunny.15 mph40%29.92 "Hg10 mi
5:20 PM52 °FSunny.13 mph35%29.92 "Hg10 mi
4:50 PM52 °FPassing clouds.13 mph41%29.92 "HgN/A
4:20 PM50 °FSunny.14 mph43%29.92 "Hg10 mi
3:50 PM52 °FSunny.9 mph32%29.92 "Hg10 mi
2:50 PM50 °FSunny.12 mph43%29.92 "Hg10 mi
2:20 PM52 °FSunny.9 mph32%29.92 "Hg10 mi
1:50 PM50 °FSunny.8 mph37%29.92 "Hg10 mi
1:20 PM52 °FSunny.8 mph38%29.92 "Hg10 mi
Weather by CustomWeather, © 2016

See weather overviewHow to use our weather pages